Regional Weather Roundup
Issued by NWS

Home | Current Version | Previous Version | Graphics & Text | Print | Product List | Glossary On
Versions: 1 2 3 4 5 6 7 8 9 10 11 12 13 14 15 16 17 18 19 20 21 22 23 24 25 26 27 28 29 30 31 32 33 34 35 36 37 38 39 40 41 42 43 44 45 46 47 48 49 50
000
ASUS43 KMPX 011701
RWRMN
WEATHER ROUNDUP FOR MINNESOTA
NATIONAL WEATHER SERVICE TWIN CITIES/CHANHASSEN MN
1100 AM CST SUN MAR 01 2015


NOTE: "FAIR" INDICATES FEW OR NO CLOUDS BELOW 12,000 FEET WITH NO
SIGNIFICANT WEATHER AND/OR OBSTRUCTIONS TO VISIBILITY. N/A MEANS
CURRENT SKY AND/OR WEATHER CONDITIONS ARE NOT AVAILABLE.

MNZ060>063-068>070-011800-
   Twin Cities Metro

CITY           SKY/WX    TMP DP  RH WIND       PRES   REMARKS
TWIN CITIES    PTSUNNY   19   5  54 W12       30.27S WCI   7
ST PAUL        MOSUNNY   21   5  50 W13       30.28S WCI   9
CRYSTAL        MOSUNNY   20   6  55 W12       30.27R WCI   8
BLAINE         PTSUNNY   21   9  58 W13       30.25S WCI   9
LAKEVILLE      MOSUNNY   16   7  67 W17       30.28S WCI   0
EDEN PRAIRIE   MOSUNNY   19   6  57 W12       30.28R WCI   7
SOUTH ST PAUL  MOSUNNY   21   7  54 W13       30.27S WCI   9
LAKE ELMO      FAIR      21   9  58 W14       30.26S WCI   8
$$
MNZ001>005-007-008-013>017-022>024-027-028-011800-
   Northwest Minnesota

CITY           SKY/WX    TMP DP  RH WIND       PRES   REMARKS
BEMIDJI        SUNNY     14   5  67 W17       30.12S WCI  -3
HALLOCK        MOSUNNY   10   5  79 NW8       30.17R WCI  -1
ROSEAU         MOSUNNY    7   1  78 W9        30.13R WCI  -7
WARROAD        SUNNY      7   0  72 W9        30.11S WCI  -7
THIEF RVR FALL MOSUNNY    9   0  66 W9        30.16R WCI  -5
CROOKSTON      FLURRIES  14   9  79 W9        30.19S WCI   2
FOSSTON        MOSUNNY    9   5  85 SW10      30.16R WCI  -6
DETROIT LAKES  MOSUNNY   14   5  67 SW8       30.19R WCI   3
MOORHEAD       CLOUDY    18  10  73 W10       30.23R WCI   6
PARK RAPIDS    SUNNY     14   4  64 W10       30.15S WCI   1
MAHNOMEN       FAIR       9   3  76 W10       30.18R WCI  -5
$$
MNZ006-009>011-018-025>026-011800-
   North Central Minnesota

CITY           SKY/WX    TMP DP  RH WIND       PRES   REMARKS
BAUDETTE       SUNNY      7   0  73 SW3       30.09S
FLAG ISLAND    SUNNY      1  -2  85 SE3       30.08S
INTL FALLS     SUNNY     11   2  67 W8        30.08S WCI  -1
WASKISH        SUNNY     10   1  67 SW14      30.12S WCI  -5
BIG FORK       SUNNY     14   3  62 SW12      30.10S WCI   0
LONGVILLE      MOSUNNY   16   3  57 SW9       30.15S WCI   4
GRAND RAPIDS   MOSUNNY   12   3  67 W9G17     30.11S WCI   0
CRANE LAKE     SUNNY     14   1  57 SW8       30.10S WCI   3
ORR            SUNNY     16   0  48 W8        30.05S WCI   5
COOK           SUNNY     16   3  57 SW10G16   30.08R WCI   3
WALKER         FAIR      14   3  63 W15       30.13S WCI  -2
$$
MNZ012-019>021-037-011800-
   Northeast Minnesota

CITY           SKY/WX    TMP DP  RH WIND       PRES   REMARKS
DULUTH         MOSUNNY   18   5  57 W15       30.09F WCI   4
ELY            SUNNY     18   1  49 W13G23    30.05R WCI   4
HIBBING        SUNNY     16   2  54 W13G20    30.09F WCI   2
EVELETH        LGT SNOW  18   5  57 W13G18    30.09S WCI   4
DULUTH HARBOR  MOSUNNY   21   9  58 W14       30.17F WCI   8
SILVER BAY     PTSUNNY   25   9  50 SW8       30.06F WCI  16
GRAND MARAIS     N/A     22  14  71 SW15      30.08F WCI   9
G MARAIS ARPRT CLOUDY    18   3  53 SW7       29.99S WCI   8
$$
MNZ029>031-032-039>041-046>048-054>057-064-011800-
   West Central Minnesota

CITY           SKY/WX    TMP DP  RH WIND       PRES   REMARKS
FERGUS FALLS   SUNNY     16   5  62 W8        30.26F WCI   5
MORRIS         MOSUNNY   21  10  63 W17       30.23S WCI   7
ALEXANDRIA     MOSUNNY   16   6  65 W15G22    30.21S WCI   1
ELBOW LAKE     FAIR      15   8  72 W12       30.23S WCI   2
WADENA         SUNNY     12   3  67 SW10      30.18S WCI  -1
APPLETON       MOSUNNY   25  10  54 W12       30.27S WCI  14
BENSON         SUNNY     21   9  58 W13       30.26S WCI   9
ORTONVILLE     MOSUNNY   23  10  58 W14G22    30.25F WCI  11
MADISON        SUNNY     25  10  54 W13       30.27S WCI  13
WILLMAR        FAIR      19   9  63 W13       30.28S WCI   7
$$
MNZ033>034-036-042>043-049>051-058-059-011800-
   Central Minnesota

CITY           SKY/WX    TMP DP  RH WIND       PRES   REMARKS
ST CLOUD       SUNNY     18   4  54 W9        30.24S WCI   7
SAUK CENTRE    FAIR      17   7  62 W13G18    30.23S WCI   4
PAYNESVILLE    SUNNY     17   5  60 SW12      30.25F WCI   4
PINE RIVER     MOSUNNY   16   5  62 W7        30.19S WCI   6
BRAINERD       MOSUNNY   15   4  61 W9        30.19S WCI   3
STAPLES        SUNNY     16   5  62 W10       30.19S WCI   3
LONG PRAIRIE   FAIR      16   5  62 SW9       30.21F WCI   4
LITTLE FALLS   SUNNY     18   5  57 W14       30.23S WCI   4
LITCHFIELD     FAIR      18   9  68 W8        30.27F WCI   7
MAPLE LAKE     MOSUNNY   19   9  64 W8        30.27R WCI   9
$$
MNZ037-044-045-052-053-011800-
   East Central Minnesota

CITY           SKY/WX    TMP DP  RH WIND       PRES   REMARKS
PRINCETON      FAIR      19   7  58 W12G20    30.24S WCI   7
MORA           SUNNY     19   5  53 W9        30.23R WCI   9
CAMBRIDGE      SUNNY     19   7  58 W10       30.22S WCI   8
RUSH CITY      MOSUNNY   19   6  58 W10       30.23S WCI   7
MOOSE LAKE     SUNNY     19   3  49 NW3       30.15F
HINCKLEY       FAIR      21   7  53 W15       30.20S WCI   8
CLOQUET        SUNNY     18   3  53 W12       30.12S WCI   5
MCGREGOR       SUNNY     18   5  57 W6        30.16F WCI   9
$$
MNZ071>073-080-081-089-090-097-098-011800-
   Southwest Minnesota

CITY           SKY/WX    TMP DP  RH WIND       PRES   REMARKS
MONTEVIDEO     SUNNY     25  12  58 W10G17    30.28F WCI  15
GRANITE FALLS  SUNNY     23  12  63 W15       30.30F WCI  10
CANBY          SUNNY     23  11  61 W17       30.29S WCI   9
MARSHALL       SUNNY     21   9  58 W20       30.30F WCI   6
REDWOOD FALLS  SUNNY     20   9  62 W13       30.30F WCI   7
OLIVIA         SUNNY     19  10  68 W9        30.28F WCI   9
PIPESTONE      SUNNY     19  12  73 W13       30.28S WCI   7
WINDOM         MOSUNNY   21  10  63 W16       30.29S WCI   7
WORTHINGTON    MOSUNNY   30   9  40 W16       30.31S WCI  19
JACKSON        MOSUNNY   23  10  58 W15       30.30R WCI  10
TRACY          MOSUNNY   23  11  61 W10G16    30.29F WCI  12
SLAYTON        PTSUNNY   21   9  58 W10       30.28S WCI  10
$$
MNZ065>067-074>077-082>085-091>093-011800-
   South Central Minnesota

CITY           SKY/WX    TMP DP  RH WIND       PRES   REMARKS
MANKATO        PTSUNNY   18   7  62 W13       30.31R WCI   4
NEW ULM        MOSUNNY   18   7  62 W12       30.31S WCI   5
ST JAMES       MOSUNNY   21   9  58 W10       30.33R WCI  10
FAIRMONT       PTSUNNY   21   7  53 W14       30.30S WCI   8
GLENCOE        MOSUNNY   19  10  67 W10       30.29S WCI   7
FARIBAULT      PTSUNNY   18   7  62 W15       30.29S WCI   3
OWATONNA       PTSUNNY   18   7  62 W15       30.29R WCI   3
WASECA         PTSUNNY   19  10  68 W13       30.31S WCI   7
ALBERT LEA     PTSUNNY   19   9  63 W9        30.28S WCI   9
$$
MNZ078>079-086>088-094>096-011800-
   Southeast Minnesota

CITY           SKY/WX    TMP DP  RH WIND       PRES   REMARKS
ROCHESTER      PTSUNNY   18   9  68 W18       30.26S WCI   2
RED WING       PTSUNNY   21   9  58 W13       30.27R WCI   9
STANTON        PTSUNNY   19   8  60 W13       30.27S WCI   7
DODGE CENTER   PTSUNNY   18   9  68 W9        30.26R WCI   6
WINONA         CLOUDY    23  16  74 W8        30.30S WCI  14
AUSTIN         PTSUNNY   18   9  68 NW14      30.28S WCI   4
PRESTON        PTSUNNY   18  14  84 W14       30.27S WCI   4
$$
ABBREVIATIONS USED IN REMARKS
   TC - TEMPERATURES IN CELSIUS
  WCI - WIND CHILL INDEX
   HX - HEAT INDEX
  VSB - VISIBILITY
$$



USA.gov is the U.S. government's official web portal to all federal, state and local government web resources and services.